Liberal, KS

11:44 AM CDT on August 27, 2016 (GMT -0500)
Liberal Municipal

Weather History for KLBL - April, 2014

Change the Weather History Date:

Wednesday, April 2, 2014

  Actual Average Record
Temperature  
Mean Temperature 60 °F -  
Max Temperature 84 °F 65 °F 91 °F (1946)
Min Temperature 37 °F 37 °F 12 °F (1975)
Degree Days  
Heating Degree Days 4    
Growing Degree Days 10 (Base 50)    
Moisture  
Dew Point 32 °F    
Average Humidity 48    
Maximum Humidity 81    
Minimum Humidity 11    
Precipitation  
Precipitation 0.00 in - - ()
Sea Level Pressure  
Sea Level Pressure 29.67 in    
Wind  
Wind Speed 13 mph (East)    
Max Wind Speed 25 mph    
Max Gust Speed 30 mph    
Visibility 9 miles    
Events      
Averages and records for this station are not official NWS values.
T = Trace of Precipitation, MM = Missing Value Source: NWS Daily Summary

Daily Weather History Graph

Daily Weather History Graph

Search for Another Location

Airport or City:

Trip Planner

Search our weather history database for the weather conditions in past years. The results will help you decide how hot, cold, wet, or windy it might be!

Date:

Astronomy

Apr. 02, 2014 Rise Set
Actual Time 7:28 AM CDT 8:07 PM CDT
Civil Twilight 7:01 AM CDT 8:33 PM CDT
Nautical Twilight 6:30 AM CDT 9:04 PM CDT
Astronomical Twilight 5:59 AM CDT 9:36 PM CDT
Moon 9:17 AM CDT (4/2) 11:27 PM CDT (4/2)
Length of Visible Light 13h 31m
Length of Day
12h 39m
Waxing Crescent, 10% of the Moon is Illuminated
Apr 2
Waxing Crescent
Apr 7
First Quarter
Apr 15
Full
Apr 22
Last Quarter
Apr 29
New

Hourly Weather History & Observations

Time (CDT) Temp. Windchill Dew Point Humidity Pressure Visibility Wind Dir Wind Speed Gust Speed Precip Events Conditions
12:15 AM 44.6 °F 36.4 °F 30.2 °F 57% 29.75 in 10.0 mi East 20.7 mph 24.2 mph N/A   Clear
12:35 AM 44.6 °F 37.2 °F 30.2 °F 57% 29.75 in 10.0 mi East 17.3 mph - N/A   Clear
12:55 AM 42.8 °F 35.4 °F 30.2 °F 61% 29.76 in 10.0 mi East 15.0 mph - N/A   Clear
1:15 AM 42.8 °F 35.1 °F 30.2 °F 61% 29.76 in 10.0 mi East 16.1 mph - N/A   Clear
1:35 AM 42.8 °F 34.5 °F 30.2 °F 61% 29.75 in 10.0 mi East 18.4 mph 21.9 mph N/A   Clear
1:55 AM 42.8 °F 34.5 °F 30.2 °F 61% 29.75 in 10.0 mi East 18.4 mph - N/A   Clear
2:15 AM 42.8 °F 35.1 °F 30.2 °F 61% 29.74 in 10.0 mi East 16.1 mph - N/A   Clear
2:35 AM 42.8 °F 34.3 °F 30.2 °F 61% 29.74 in 10.0 mi East 19.6 mph 24.2 mph N/A   Clear
2:55 AM 41.0 °F 33.5 °F 30.2 °F 65% 29.74 in 10.0 mi East 13.8 mph 19.6 mph N/A   Clear
3:15 AM 41.0 °F 32.8 °F 30.2 °F 65% 29.73 in 10.0 mi East 16.1 mph - N/A   Clear
3:35 AM 39.2 °F 32.0 °F 30.2 °F 70% 29.73 in 10.0 mi East 11.5 mph - N/A   Clear
3:55 AM 39.2 °F 32.0 °F 30.2 °F 70% 29.73 in 10.0 mi East 11.5 mph - N/A   Clear
4:15 AM 39.2 °F 31.6 °F 30.2 °F 70% 29.73 in 10.0 mi East 12.7 mph - N/A   Clear
4:35 AM 39.2 °F 31.2 °F 30.2 °F 70% 29.72 in 10.0 mi East 13.8 mph - N/A   Clear
4:55 AM 39.2 °F 32.0 °F 30.2 °F 70% 29.72 in 10.0 mi East 11.5 mph - N/A   Clear
5:15 AM 37.4 °F 29.8 °F 28.4 °F 70% 29.72 in 10.0 mi East 11.5 mph - N/A   Clear
5:35 AM 37.4 °F 30.3 °F 30.2 °F 75% 29.72 in 7.0 mi East 10.4 mph - N/A   Clear
5:55 AM 37.4 °F 30.8 °F 30.2 °F 75% 29.71 in 5.0 mi ENE 9.2 mph - N/A   Clear
6:15 AM 37.4 °F 31.4 °F 28.4 °F 70% 29.72 in 5.0 mi East 8.1 mph - N/A   Clear
7:55 AM 37.4 °F 30.8 °F 30.2 °F 75% 29.73 in 3.0 mi East 9.2 mph - N/A   Clear
8:15 AM 37.4 °F 32.1 °F 32.0 °F 81% 29.75 in 3.0 mi East 6.9 mph - N/A   Clear
8:35 AM 39.2 °F 35.9 °F 33.8 °F 81% 29.75 in 4.0 mi ENE 4.6 mph - N/A   Mostly Cloudy
8:55 AM 41.0 °F 36.4 °F 33.8 °F 76% 29.76 in 4.0 mi NE 6.9 mph - N/A   Scattered Clouds
9:15 AM 42.8 °F 39.3 °F 35.6 °F 76% 29.76 in 4.0 mi East 5.8 mph - N/A   Clear
9:35 AM 44.6 °F 40.7 °F 35.6 °F 71% 29.76 in 5.0 mi ENE 6.9 mph - N/A   Clear
9:55 AM 46.4 °F 43.5 °F 37.4 °F 71% 29.76 in 5.0 mi East 5.8 mph - N/A   Clear
10:15 AM 46.4 °F - 37.4 °F 71% 29.77 in 5.0 mi Calm Calm - N/A   Clear
10:35 AM 48.2 °F - 39.2 °F 71% 29.77 in 6.0 mi Calm Calm - N/A   Clear
10:55 AM 51.8 °F - 39.2 °F 62% 29.77 in 7.0 mi Calm Calm - N/A   Clear
11:15 AM 51.8 °F - 39.2 °F 62% 29.77 in 8.0 mi NE 3.5 mph - N/A   Clear
11:35 AM 53.6 °F - 39.2 °F 58% 29.76 in 8.0 mi Calm Calm - N/A   Clear
11:55 AM 57.2 °F - 39.2 °F 51% 29.76 in 9.0 mi ENE 5.8 mph - N/A   Clear
12:15 PM 59.0 °F - 39.2 °F 48% 29.75 in 9.0 mi NE 3.5 mph - N/A   Clear
12:55 PM 64.4 °F - 35.6 °F 34% 29.73 in 10.0 mi SSE 4.6 mph - N/A   Clear
1:15 PM 66.2 °F - 32.0 °F 28% 29.72 in 10.0 mi SW 4.6 mph - N/A   Clear
1:35 PM 68.0 °F - 30.2 °F 24% 29.71 in 10.0 mi SW 5.8 mph - N/A   Clear
1:55 PM 69.8 °F - 28.4 °F 21% 29.69 in 10.0 mi SW 4.6 mph - N/A   Clear
2:15 PM 71.6 °F - 28.4 °F 20% 29.68 in 10.0 mi SE 6.9 mph - N/A   Clear
2:35 PM 73.4 °F - 28.4 °F 19% 29.66 in 10.0 mi SW 8.1 mph - N/A   Clear
2:55 PM 75.2 °F - 28.4 °F 18% 29.64 in 10.0 mi SE 3.5 mph - N/A   Clear
3:15 PM 78.8 °F - 28.4 °F 16% 29.63 in 10.0 mi South 11.5 mph 17.3 mph N/A   Clear
3:35 PM 80.6 °F - 26.6 °F 14% 29.61 in 10.0 mi SSE 8.1 mph - N/A   Clear
3:55 PM 80.6 °F - 24.8 °F 13% 29.60 in 10.0 mi SW 13.8 mph 18.4 mph N/A   Clear
4:15 PM 82.4 °F - 24.8 °F 12% 29.59 in 10.0 mi South 21.9 mph 29.9 mph N/A   Clear
4:35 PM 84.2 °F - 24.8 °F 11% 29.58 in 10.0 mi SW 24.2 mph 28.8 mph N/A   Clear
4:55 PM 84.2 °F - 24.8 °F 11% 29.57 in 10.0 mi SSW 21.9 mph 27.6 mph N/A   Clear
5:15 PM 84.2 °F - 24.8 °F 11% 29.57 in 10.0 mi SSW 18.4 mph 27.6 mph N/A   Clear
5:35 PM 84.2 °F - 24.8 °F 11% 29.56 in 10.0 mi SW 25.3 mph 28.8 mph N/A   Clear
5:55 PM 84.2 °F - 23.0 °F 11% 29.55 in 10.0 mi SSW 16.1 mph 27.6 mph N/A   Clear
6:15 PM 78.8 °F - 21.2 °F 12% 29.56 in 10.0 mi ESE 8.1 mph - N/A   Clear
6:35 PM 75.2 °F - 30.2 °F 19% 29.55 in 10.0 mi East 12.7 mph 18.4 mph N/A   Clear
6:55 PM 73.4 °F - 32.0 °F 22% 29.54 in 10.0 mi East 24.2 mph 27.6 mph N/A   Clear
7:15 PM 71.6 °F - 33.8 °F 25% 29.55 in 10.0 mi East 20.7 mph 28.8 mph N/A   Clear
7:35 PM 69.8 °F - 33.8 °F 27% 29.55 in 10.0 mi East 18.4 mph 27.6 mph N/A   Clear
7:55 PM 68.0 °F - 35.6 °F 30% 29.55 in 10.0 mi East 18.4 mph 24.2 mph N/A   Clear
8:15 PM 66.2 °F - 35.6 °F 32% 29.56 in 10.0 mi East 15.0 mph 23.0 mph N/A   Clear
8:35 PM 64.4 °F - 37.4 °F 37% 29.56 in 10.0 mi East 18.4 mph 21.9 mph N/A   Clear
8:55 PM 62.6 °F - 37.4 °F 39% 29.56 in 10.0 mi East 19.6 mph - N/A   Clear
9:15 PM 62.6 °F - 37.4 °F 39% 29.56 in 10.0 mi East 16.1 mph 24.2 mph N/A   Clear
9:35 PM 60.8 °F - 37.4 °F 42% 29.58 in 10.0 mi East 17.3 mph 23.0 mph N/A   Clear
9:55 PM 59.0 °F - 37.4 °F 45% 29.58 in 10.0 mi ENE 16.1 mph - N/A   Clear
10:15 PM 55.4 °F - 37.4 °F 51% 29.60 in 10.0 mi NE 13.8 mph - N/A   Clear
10:35 PM 51.8 °F - 37.4 °F 58% 29.60 in 10.0 mi NE 15.0 mph - N/A   Clear
11:15 PM 48.2 °F - 37.4 °F 66% 29.61 in 9.0 mi NE 11.5 mph - N/A   Clear
11:35 PM 46.4 °F 41.1 °F 37.4 °F 71% 29.61 in 8.0 mi ENE 11.5 mph - N/A   Clear
11:55 PM 44.6 °F 39.2 °F 37.4 °F 76% 29.61 in 8.0 mi ENE 10.4 mph - N/A   Clear